[[{"header":{"parameterUnit":"m.s-1","parameterCategory":2,"la1":30.2991,"la2":30.254,"lo1":-89.0895,"lo2":-89.0444,"dy":0.0017,"dx":0.0017,"nx":28,"ny":28,"refTime":"2024-05-27T03:00:00:Z","depth":"0","parameterNumber":2,"parameterNumberName":"U-component_of_CURRENTS"},"data":[0,0,0,0,0,0,0,0,0,0,0,0,0,0,0,0,0,0,0,0,0,0,0,0,0,0,0,0,0,0,0,0,0,0,0,0,0,0,0,0,0,0,0,0,0,0,0,0,0,0,0,0,0,0,0,0,0,0,-0.2228,-0.2228,0,-0.225,-0.225,-0.225,-0.2213,-0.2212,-0.2211,-0.221,-0.2177,-0.2177,-0.2177,0,0,0,0,0,0,0,0,0,0,0,0,0,-0.216,-0.2161,-0.2228,-0.2228,-0.2229,-0.225,-0.225,-0.225,-0.2213,-0.2212,-0.2211,-0.221,-0.2177,-0.2177,-0.2177,0,0,0,0,0,0,0,0,0,0,0,0,0,-0.2184,-0.2162,-0.2228,-0.2215,-0.2215,-0.225,-0.225,-0.225,-0.2213,-0.2212,-0.221,-0.2209,-0.2177,-0.2177,-0.2177,-0.2206,0,0,-0.2177,-0.2177,0,0,0,0,0,0,0,0,-0.2183,-0.2186,-0.2216,-0.2216,-0.2215,-0.223,-0.2215,-0.2234,-0.2214,-0.221,-0.221,-0.2208,-0.2193,-0.2191,-0.2195,-0.2205,-0.2203,-0.2177,-0.2177,-0.2177,-0.2177,0,0,0,0,0,0,0,-0.2181,-0.2185,-0.2233,-0.2217,-0.2217,-0.2212,-0.2213,-0.2218,-0.2206,-0.2211,-0.2209,-0.2217,-0.2191,-0.2195,-0.2194,-0.2203,-0.2177,-0.2177,-0.2177,-0.2177,-0.2237,-0.2239,0,0,0,0,0,0,-0.2186,-0.2184,-0.2233,-0.2234,-0.2199,-0.2214,-0.2216,-0.2224,-0.2207,-0.2204,-0.2218,-0.2215,-0.2196,-0.2194,-0.2192,-0.2218,-0.2177,-0.2177,-0.2177,-0.2236,-0.2237,-0.2239,0,0,0,0,0,0,-0.2185,-0.2191,-0.2232,-0.2212,-0.2217,-0.2217,-0.2227,-0.2226,-0.2227,-0.2214,-0.2209,-0.2221,-0.2194,-0.2192,-0.2202,-0.2216,-0.2177,-0.2177,-0.2234,-0.2236,-0.2238,-0.2274,0,0,0,0,0,0,-0.2183,-0.219,-0.2193,-0.2212,-0.2219,-0.2257,-0.2229,-0.2227,-0.2236,-0.2232,-0.2215,-0.2211,-0.2193,-0.2202,-0.2202,-0.2216,-0.2177,-0.2232,-0.2235,-0.2238,-0.2271,-0.2278,-0.2283,0,0,0,0,0,-0.218,-0.2192,-0.2193,-0.2199,-0.2224,-0.2258,-0.2261,-0.2253,-0.2238,-0.2247,-0.2236,-0.2211,-0.2221,-0.2204,-0.2203,-0.2217,-0.223,-0.2234,-0.2237,-0.2269,-0.2276,-0.2283,0,0,0,0,0,0,-0.216,-0.219,-0.2191,-0.221,-0.2235,-0.2253,-0.2256,-0.2261,-0.2261,-0.225,-0.2231,-0.2227,-0.2239,-0.2233,-0.2215,-0.2246,-0.2222,-0.2226,-0.2246,-0.2253,-0.2259,-0.2254,-0.2177,0,0,0,0,0,-0.2161,-0.2173,-0.2208,-0.2219,-0.2233,-0.2247,-0.2257,-0.2261,-0.2269,-0.2266,-0.2258,-0.2253,-0.2258,-0.2258,-0.2258,-0.2279,-0.2254,-0.229,-0.2296,-0.2301,-0.2299,-0.2279,-0.2282,-0.2251,-0.2251,-0.2251,0,0,-0.2154,-0.2173,-0.2178,-0.2216,-0.2227,-0.2265,-0.2248,-0.2269,-0.2296,-0.2264,-0.2282,-0.2272,-0.2269,-0.2286,-0.2291,-0.2279,-0.2298,-0.2306,-0.2309,-0.2304,-0.2283,-0.2286,-0.2288,-0.2253,-0.2253,-0.2252,0,0,-0.2158,-0.2166,-0.2185,-0.2215,-0.2249,-0.2268,-0.2279,-0.2307,-0.2308,-0.2337,-0.2317,-0.2317,-0.233,-0.2325,-0.2327,-0.2372,-0.2329,-0.2376,-0.2401,-0.2383,-0.2384,-0.2386,-0.2356,-0.2354,-0.2381,-0.2381,-0.2381,0,-0.215,-0.2183,-0.2195,-0.2233,-0.2262,-0.2275,-0.2317,-0.2332,-0.2358,-0.2361,-0.2345,-0.2353,-0.2348,-0.2364,-0.238,-0.2382,-0.236,-0.2369,-0.2388,-0.2388,-0.2389,-0.2358,-0.2355,-0.2383,-0.2383,-0.2382,-0.2382,0,-0.2175,-0.221,-0.2224,-0.2277,-0.2312,-0.2346,-0.2384,-0.2403,-0.2406,-0.2415,-0.2422,-0.241,-0.2411,-0.2416,-0.2412,-0.2422,-0.2401,-0.2393,-0.2362,-0.2394,-0.236,-0.2356,-0.2386,-0.2385,-0.2385,-0.2384,0,0,-0.2132,-0.2227,-0.2229,-0.2273,-0.2341,-0.2373,-0.2419,-0.2461,-0.2472,-0.248,-0.2484,-0.2497,-0.247,-0.2471,-0.2458,-0.2447,-0.2435,-0.2426,-0.2424,-0.2383,-0.2382,-0.2303,-0.2291,-0.2425,-0.2425,-0.2425,-0.2356,0,-0.2148,-0.2223,-0.2273,-0.2352,-0.2397,-0.2442,-0.2483,-0.2519,-0.2525,-0.2527,-0.2509,-0.2509,-0.2498,-0.249,-0.2478,-0.2447,-0.2428,-0.2453,-0.2369,-0.2366,-0.2281,-0.2285,-0.2153,-0.2075,-0.2352,-0.2351,-0.2351,0,-0.2146,-0.2206,-0.2281,-0.2393,-0.2415,-0.2461,-0.2516,-0.2561,-0.2571,-0.2573,-0.2562,-0.2539,-0.2531,-0.2508,-0.2462,-0.2477,-0.2434,-0.2403,-0.2399,-0.2307,-0.228,-0.209,-0.2058,-0.2046,-0.2345,-0.2346,-0.2346,0,-0.2085,-0.2208,-0.2267,-0.2305,-0.2428,-0.246,-0.2515,-0.2551,-0.2578,-0.2588,-0.2588,-0.2568,-0.2549,-0.2505,-0.2442,-0.2455,-0.2366,-0.2375,-0.2259,-0.2252,-0.2114,-0.2095,-0.2045,-0.2329,-0.233,-0.233,-0.233,0,-0.207,-0.2119,-0.224,-0.2273,-0.2333,-0.2432,-0.2472,-0.2519,-0.2564,-0.2551,-0.2596,-0.2546,-0.2547,-0.2489,-0.2437,-0.2324,-0.2361,-0.2253,-0.2227,-0.2124,-0.2108,-0.207,-0.2114,-0.2327,-0.2328,-0.2328,-0.2329,0,-0.1973,-0.2067,-0.213,-0.2258,-0.2301,-0.2326,-0.2445,-0.2467,-0.2538,-0.2517,-0.2523,-0.2536,-0.2463,-0.2444,-0.2359,-0.2308,-0.2172,-0.2166,-0.204,-0.2,-0.1891,-0.1942,-0.1882,-0.1832,-0.2036,-0.2034,-0.2032,0,-0.1931,-0.1951,-0.2069,-0.2104,-0.2157,-0.2231,-0.2279,-0.2409,-0.2439,-0.2455,-0.2431,-0.2397,-0.2266,-0.2162,-0.2103,-0.201,-0.2049,-0.1863,-0.1869,-0.1855,-0.1894,-0.1947,-0.1915,-0.1701,-0.1697,-0.1693,-0.169,0,-0.1827,-0.185,-0.1899,-0.1955,-0.2015,-0.2072,-0.2157,-0.2162,-0.2266,-0.2231,-0.2111,-0.2,-0.1967,-0.1806,-0.1786,-0.1719,-0.1823,-0.1783,-0.1796,-0.1647,-0.1673,-0.162,-0.1786,-0.1656,-0.166,-0.1662,-0.1664,-0.1665,-0.1721,-0.1696,-0.1742,-0.1783,-0.184,-0.1827,-0.1782,-0.1845,-0.1779,-0.1645,-0.1686,-0.1457,-0.1571,-0.1499,-0.1461,-0.145,-0.1551,-0.1414,-0.1481,-0.154,-0.1478,-0.1568,-0.1399,-0.14,-0.1402,-0.1403,-0.1404,0,-0.1583,-0.1564,-0.158,-0.1593,-0.1548,-0.1644,-0.1642,-0.1537,-0.1331,-0.1243,-0.1061,-0.0979,-0.0954,-0.1113,-0.1218,-0.1169,-0.1165,-0.1172,-0.1219,-0.1202,-0.1275,-0.1244,-0.0999,-0.0999,-0.0999,-0.0999,-0.0999,-0.0999,-0.1517,-0.1447,-0.1438,-0.1292,-0.128,-0.1129,-0.1047,-0.0909,-0.0811,-0.0525,-0.0412,-0.0369,-0.0705,-0.1063,-0.1134,-0.1086,-0.1105,-0.1052,-0.1134,-0.1195,-0.1223,-0.1251,-0.123,-0.0986,-0.0986,-0.0971,-0.0971,-0.0971]},{"header":{"parameterUnit":"m.s-1","parameterCategory":2,"la1":30.2991,"la2":30.254,"lo1":-89.0895,"lo2":-89.0444,"dy":0.0017,"dx":0.0017,"nx":28,"ny":28,"refTime":"2024-05-27T03:00:00:Z","depth":"0","parameterNumber":3,"parameterNumberName":"V-component_of_CURRENTS"},"data":[0,0,0,0,0,0,0,0,0,0,0,0,0,0,0,0,0,0,0,0,0,0,0,0,0,0,0,0,0,0,0,0,0,0,0,0,0,0,0,0,0,0,0,0,0,0,0,0,0,0,0,0,0,0,0,0,0,0,-0.0033,-0.0033,0,0.0045,0.0046,0.0047,0.011,0.011,0.0111,0.0111,0.0231,0.0233,0.0236,0,0,0,0,0,0,0,0,0,0,0,0,0,-0.0082,-0.0082,-0.0033,-0.0033,-0.0032,0.0045,0.0046,0.0047,0.011,0.011,0.0111,0.0111,0.023,0.0233,0.0236,0,0,0,0,0,0,0,0,0,0,0,0,0,-0.0037,-0.0082,-0.0034,0.0008,0.0012,0.0044,0.0046,0.0047,0.0109,0.011,0.0111,0.0112,0.0229,0.0233,0.0237,0.0246,0,0,0.0249,0.0251,0,0,0,0,0,0,0,0,-0.004,-0.0036,0.0001,0.0005,0.001,0.0067,0.0072,0.0115,0.0109,0.0074,0.0111,0.0112,0.0179,0.0187,0.0201,0.0251,0.0256,0.0249,0.0252,0.0253,0.0255,0,0,0,0,0,0,0,-0.0043,-0.0038,-0.0001,0.0002,0.0007,0.0038,0.0045,0.0081,0.0122,0.0077,0.0081,0.0088,0.0182,0.0197,0.0204,0.0258,0.0249,0.0253,0.0255,0.0257,0.0334,0.0334,0,0,0,0,0,0,-0.0059,-0.0042,-0.0004,0.0001,-0.0015,0.0038,0.0046,0.0049,0.0121,0.0132,0.0087,0.0091,0.0189,0.0199,0.0209,0.022,0.0253,0.0257,0.026,0.0334,0.0334,0.0334,0,0,0,0,0,0,-0.006,-0.0056,-0.0007,-0.0019,-0.0011,0.0038,0.0041,0.005,0.0066,0.0128,0.0141,0.0094,0.019,0.0203,0.024,0.0226,0.0259,0.0263,0.0335,0.0334,0.0334,0.0246,0,0,0,0,0,0,-0.0062,-0.0057,-0.0064,-0.002,-0.0011,0.0002,0.004,0.0051,0.0069,0.0074,0.0138,0.015,0.0192,0.0233,0.0244,0.0232,0.0266,0.0335,0.0335,0.0334,0.0249,0.0243,0.0237,0,0,0,0,0,-0.0064,-0.0083,-0.0065,-0.0061,-0.0021,0.0002,0.0009,0.0048,0.0068,0.0067,0.0115,0.0148,0.0236,0.0236,0.0248,0.0237,0.0336,0.0335,0.0334,0.0252,0.0244,0.0237,0,0,0,0,0,0,-0.0111,-0.0077,-0.0057,-0.0064,-0.0036,0.0012,0.0011,0.0041,0.0077,0.0083,0.0146,0.0161,0.0186,0.0225,0.0223,0.0258,0.029,0.0292,0.0224,0.0217,0.0211,0.0204,0.0269,0,0,0,0,0,-0.0125,-0.0127,-0.0086,-0.0093,-0.0083,-0.0036,-0.0023,0.0004,0.0043,0.006,0.0106,0.0154,0.0191,0.0214,0.0252,0.0272,0.0319,0.0273,0.0267,0.0261,0.0265,0.0317,0.0315,0.0331,0.0331,0.0331,0,0,-0.0145,-0.0127,-0.0128,-0.0103,-0.0078,-0.0076,-0.0027,-0.0015,-0.0006,0.0067,0.0087,0.0131,0.0191,0.0213,0.0228,0.0245,0.0281,0.026,0.0255,0.0262,0.0316,0.0314,0.0313,0.033,0.033,0.033,0,0,-0.0194,-0.0171,-0.0191,-0.0174,-0.0146,-0.0112,-0.0112,-0.0067,-0.0041,-0.0014,0.0038,0.0075,0.0132,0.0172,0.02,0.0183,0.0243,0.0191,0.0158,0.0207,0.0206,0.0206,0.0259,0.0264,0.0191,0.0191,0.019,0,-0.0221,-0.0238,-0.0193,-0.0209,-0.0206,-0.0134,-0.0155,-0.0116,-0.0063,-0.0043,-0.002,0.0067,0.0113,0.015,0.0145,0.0168,0.0209,0.0178,0.0198,0.0199,0.02,0.0255,0.0262,0.0186,0.0187,0.0187,0.0188,0,-0.0282,-0.0296,-0.0308,-0.03,-0.0287,-0.0294,-0.0238,-0.0211,-0.0167,-0.0123,-0.0078,-0.0009,0.0045,0.0061,0.0101,0.0129,0.016,0.0179,0.0214,0.0193,0.0252,0.0261,0.018,0.0182,0.0183,0.0184,0,0,-0.0344,-0.0353,-0.0356,-0.0383,-0.034,-0.0346,-0.0315,-0.0275,-0.026,-0.0192,-0.0168,-0.0097,-0.0048,-0.0012,0.0042,0.009,0.0133,0.0135,0.014,0.0181,0.0248,0.0317,0.0335,0.0155,0.0156,0.0157,0.0283,0,-0.0408,-0.0474,-0.0445,-0.0499,-0.0531,-0.0459,-0.0441,-0.0389,-0.0323,-0.0275,-0.0181,-0.0139,-0.0078,-0.0056,0.0003,0.0106,0.0153,0.0097,0.0268,0.0274,0.0332,0.0346,0.0396,0.0517,0.0293,0.0294,0.0295,0,-0.0474,-0.0515,-0.0585,-0.0616,-0.0621,-0.0628,-0.0591,-0.0568,-0.0457,-0.0408,-0.0325,-0.0233,-0.0139,-0.0095,0.0077,0.004,0.0134,0.0213,0.022,0.0325,0.036,0.0504,0.0542,0.0686,0.031,0.0309,0.0307,0,-0.0557,-0.0612,-0.0679,-0.0691,-0.0699,-0.0709,-0.0698,-0.0611,-0.0586,-0.0487,-0.0442,-0.0312,-0.0228,-0.0103,0.0094,0.0081,0.0289,0.029,0.0439,0.0445,0.0544,0.0557,0.0739,0.0395,0.0394,0.0394,0.0394,0,-0.0639,-0.0695,-0.0731,-0.0776,-0.0857,-0.0813,-0.0848,-0.0804,-0.0712,-0.0627,-0.0524,-0.0407,-0.0223,-0.0055,0.0081,0.0311,0.0285,0.0447,0.0488,0.0515,0.0523,0.0699,0.0743,0.0399,0.0398,0.0397,0.0396,0,-0.0712,-0.0734,-0.0832,-0.088,-0.0905,-0.0963,-0.0967,-0.0953,-0.0864,-0.0739,-0.07,-0.0475,-0.0229,-0.0047,0.0196,0.0316,0.0603,0.0575,0.0601,0.0643,0.0904,0.094,0.1153,0.1254,0.0755,0.0757,0.0759,0,-0.0754,-0.0806,-0.0927,-0.1,-0.1031,-0.11,-0.1113,-0.105,-0.097,-0.0722,-0.0625,-0.0387,-0.0117,0.0215,0.0434,0.0667,0.0748,0.0826,0.0808,0.0945,0.1015,0.1021,0.1089,0.0903,0.0906,0.0908,0.091,0,-0.083,-0.0867,-0.0957,-0.1105,-0.1172,-0.1226,-0.1199,-0.1142,-0.0942,-0.0763,-0.0403,-0.018,0.0157,0.0484,0.0709,0.0839,0.0943,0.0887,0.1028,0.1154,0.1175,0.1282,0.0789,0.0933,0.0931,0.0929,0.0928,0.0927,-0.088,-0.0965,-0.1072,-0.1205,-0.1275,-0.1248,-0.1216,-0.1061,-0.0855,-0.0441,-0.0211,0.0213,0.0551,0.0903,0.104,0.1254,0.1185,0.1319,0.1355,0.135,0.1447,0.1009,0.1196,0.1195,0.1194,0.1194,0.1193,0,-0.0924,-0.101,-0.1151,-0.1269,-0.1296,-0.1321,-0.1186,-0.1026,-0.0673,-0.0275,0.013,0.0724,0.1049,0.1281,0.1545,0.1706,0.1721,0.1758,0.1778,0.1829,0.1456,0.1463,0.1718,0.1718,0.1718,0.1717,0.1717,0.1717,-0.0955,-0.108,-0.1152,-0.1229,-0.1274,-0.1178,-0.1058,-0.0785,-0.0462,0.0163,0.0601,0.0953,0.1281,0.1757,0.2054,0.2085,0.224,0.2196,0.2281,0.2017,0.1978,0.194,0.1961,0.2316,0.2316,0.2648,0.2651,0.2654]}],[{"header":{"parameterUnit":"m.s-1","parameterCategory":2,"la1":30.2991,"la2":30.254,"lo1":-89.0895,"lo2":-89.0444,"dy":0.0017,"dx":0.0017,"nx":28,"ny":28,"refTime":"2024-05-27T03:00:00:Z","depth":"2","parameterNumber":2,"parameterNumberName":"U-component_of_CURRENTS"},"data":[0,0,0,0,0,0,0,0,0,0,0,0,0,0,0,0,0,0,0,0,0,0,0,0,0,0,0,0,0,0,0,0,0,0,0,0,0,0,0,0,0,0,0,0,0,0,0,0,0,0,0,0,0,0,0,0,0,0,-0.215,-0.215,0,-0.2181,-0.2182,-0.2182,-0.2157,-0.2157,-0.2156,-0.2155,-0.2138,-0.2139,-0.2139,0,0,0,0,0,0,0,0,0,0,0,0,0,-0.2068,-0.207,-0.2149,-0.215,-0.2151,-0.2181,-0.2182,-0.2182,-0.2158,-0.2157,-0.2156,-0.2155,-0.2138,-0.2139,-0.2139,0,0,0,0,0,0,0,0,0,0,0,0,0,-0.21,-0.207,-0.2149,-0.2145,-0.2145,-0.2181,-0.2182,-0.2182,-0.2158,-0.2157,-0.2155,-0.2154,-0.2138,-0.2139,-0.2139,-0.2166,0,0,-0.214,-0.2141,0,0,0,0,0,0,0,0,-0.2098,-0.2102,-0.2145,-0.2145,-0.2145,-0.2167,-0.2147,-0.2175,-0.2158,-0.215,-0.2155,-0.2154,-0.2146,-0.2146,-0.2151,-0.2165,-0.2164,-0.214,-0.2141,-0.2141,-0.2141,0,0,0,0,0,0,0,-0.2096,-0.2101,-0.2159,-0.2145,-0.2146,-0.2141,-0.2144,-0.2152,-0.2151,-0.215,-0.2149,-0.2158,-0.2145,-0.2151,-0.215,-0.2164,-0.214,-0.2141,-0.2141,-0.2141,-0.2209,-0.2211,0,0,0,0,0,0,-0.2099,-0.2099,-0.2158,-0.2161,-0.2121,-0.2144,-0.2147,-0.2159,-0.2152,-0.2151,-0.2159,-0.2157,-0.2151,-0.215,-0.215,-0.2182,-0.2141,-0.2141,-0.2141,-0.2208,-0.221,-0.2211,0,0,0,0,0,0,-0.2097,-0.2104,-0.2157,-0.2132,-0.2139,-0.2147,-0.216,-0.216,-0.2166,-0.216,-0.2157,-0.2166,-0.215,-0.2149,-0.2165,-0.2181,-0.2141,-0.2142,-0.2206,-0.2208,-0.2211,-0.2245,0,0,0,0,0,0,-0.2095,-0.2103,-0.211,-0.2133,-0.2141,-0.2185,-0.2162,-0.2162,-0.2175,-0.2172,-0.2165,-0.2162,-0.2149,-0.2164,-0.2165,-0.2181,-0.2142,-0.2204,-0.2207,-0.221,-0.2242,-0.2249,-0.2254,0,0,0,0,0,-0.2092,-0.2107,-0.2111,-0.2118,-0.2151,-0.2186,-0.219,-0.2188,-0.2176,-0.2187,-0.2183,-0.2162,-0.2183,-0.2166,-0.2167,-0.2183,-0.2203,-0.2206,-0.221,-0.224,-0.2247,-0.2254,0,0,0,0,0,0,-0.2072,-0.2107,-0.2111,-0.2135,-0.2162,-0.2183,-0.219,-0.2196,-0.2203,-0.2194,-0.2182,-0.218,-0.2198,-0.2194,-0.2176,-0.2214,-0.219,-0.2194,-0.2213,-0.222,-0.2226,-0.222,-0.2143,0,0,0,0,0,-0.2075,-0.2092,-0.2128,-0.2145,-0.216,-0.2177,-0.219,-0.2196,-0.2208,-0.2209,-0.2206,-0.2207,-0.2216,-0.2219,-0.2224,-0.2248,-0.2224,-0.2261,-0.2267,-0.2272,-0.227,-0.2253,-0.2257,-0.2223,-0.2223,-0.2223,0,0,-0.2069,-0.2092,-0.21,-0.2142,-0.2157,-0.2194,-0.218,-0.2205,-0.2232,-0.2207,-0.2231,-0.2226,-0.2228,-0.225,-0.2258,-0.2246,-0.227,-0.2276,-0.228,-0.2275,-0.2257,-0.226,-0.2263,-0.2225,-0.2225,-0.2224,0,0,-0.2077,-0.2091,-0.2114,-0.2144,-0.218,-0.22,-0.2212,-0.2242,-0.2247,-0.2279,-0.2265,-0.2271,-0.2291,-0.229,-0.2294,-0.2339,-0.2301,-0.2346,-0.237,-0.2354,-0.2356,-0.2357,-0.2327,-0.2325,-0.2349,-0.235,-0.235,0,-0.2069,-0.2108,-0.2125,-0.2163,-0.219,-0.2208,-0.2247,-0.2265,-0.2296,-0.2301,-0.2291,-0.2311,-0.2309,-0.233,-0.2346,-0.235,-0.2329,-0.2339,-0.2359,-0.236,-0.2361,-0.2329,-0.2327,-0.2352,-0.2351,-0.2351,-0.2351,0,-0.21,-0.2137,-0.2153,-0.2208,-0.224,-0.2275,-0.2313,-0.2334,-0.2342,-0.2354,-0.2371,-0.2367,-0.2374,-0.2381,-0.2378,-0.2392,-0.2371,-0.2365,-0.2334,-0.2365,-0.2331,-0.2328,-0.2355,-0.2354,-0.2353,-0.2353,0,0,-0.2062,-0.2158,-0.2161,-0.2198,-0.2268,-0.2294,-0.2344,-0.2388,-0.2405,-0.2419,-0.2431,-0.2449,-0.2431,-0.2435,-0.2427,-0.2416,-0.2405,-0.2397,-0.2395,-0.2354,-0.2358,-0.2279,-0.2267,-0.2399,-0.2399,-0.2399,-0.2329,0,-0.208,-0.2154,-0.2203,-0.2272,-0.2312,-0.2357,-0.2403,-0.2439,-0.2456,-0.2469,-0.2457,-0.2468,-0.2458,-0.2456,-0.2446,-0.2418,-0.24,-0.2424,-0.2345,-0.2342,-0.2257,-0.2262,-0.2092,-0.201,-0.2326,-0.2325,-0.2325,0,-0.2084,-0.2139,-0.221,-0.2305,-0.2326,-0.2369,-0.2427,-0.2473,-0.2501,-0.2512,-0.2513,-0.2502,-0.2497,-0.2477,-0.2434,-0.2449,-0.2408,-0.2378,-0.2374,-0.2284,-0.2257,-0.2032,-0.1992,-0.2319,-0.232,-0.232,-0.2321,0,-0.2027,-0.2136,-0.219,-0.2224,-0.2335,-0.2366,-0.2417,-0.2469,-0.2505,-0.2527,-0.2539,-0.2528,-0.2513,-0.2475,-0.2414,-0.2429,-0.2342,-0.2354,-0.2239,-0.2233,-0.2062,-0.2041,-0.2311,-0.2311,-0.2311,-0.2312,-0.2312,0,-0.2017,-0.2057,-0.2165,-0.2193,-0.2244,-0.2335,-0.2386,-0.2429,-0.2496,-0.2522,-0.2546,-0.2538,-0.2512,-0.246,-0.2411,-0.2301,-0.2337,-0.2234,-0.2208,-0.2071,-0.2052,-0.2305,-0.2305,-0.2309,-0.2309,-0.231,-0.231,0,-0.1933,-0.2019,-0.207,-0.2182,-0.2216,-0.2238,-0.2362,-0.2417,-0.2479,-0.2508,-0.2518,-0.2538,-0.2467,-0.2415,-0.2333,-0.2283,-0.2198,-0.2147,-0.1979,-0.1935,-0.2103,-0.2106,-0.2028,-0.2024,-0.2021,-0.2019,-0.2017,0,-0.1899,-0.1919,-0.2016,-0.2051,-0.21,-0.2171,-0.2247,-0.237,-0.2441,-0.2489,-0.2505,-0.2454,-0.2366,-0.2222,-0.2116,-0.1991,-0.2084,-0.1805,-0.1808,-0.209,-0.2073,-0.2081,-0.2088,-0.1594,-0.1589,-0.1585,-0.1581,0,-0.1812,-0.1836,-0.1877,-0.194,-0.2017,-0.2103,-0.2216,-0.2255,-0.2393,-0.2412,-0.238,-0.2295,-0.2156,-0.193,-0.1797,-0.172,-0.1817,-0.1714,-0.2029,-0.1703,-0.1678,-0.1664,-0.1685,-0.1543,-0.1546,-0.1549,-0.1551,-0.1553,-0.1721,-0.1706,-0.1761,-0.1813,-0.1908,-0.1985,-0.1968,-0.2109,-0.2142,-0.2109,-0.2187,-0.2001,-0.1928,-0.1602,-0.1489,-0.1404,-0.1535,-0.1488,-0.1502,-0.1521,-0.1493,-0.1466,-0.1285,-0.1287,-0.1289,-0.129,-0.1292,0,-0.1605,-0.1615,-0.165,-0.17,-0.1751,-0.1828,-0.1921,-0.1879,-0.183,-0.1852,-0.1793,-0.1556,-0.1387,-0.1303,-0.109,-0.106,-0.1063,-0.1038,-0.1043,-0.1081,-0.1114,-0.1069,-0.0745,-0.0744,-0.0743,-0.0742,0,0,-0.1559,-0.1513,-0.1529,-0.153,-0.156,-0.1499,-0.1479,-0.1447,-0.1425,-0.1294,-0.1207,-0.1317,-0.1258,-0.1024,-0.0956,-0.08,-0.0936,-0.0761,-0.1193,-0.1234,-0.1267,-0.136,-0.1329,0,0,0,0,0]},{"header":{"parameterUnit":"m.s-1","parameterCategory":2,"la1":30.2991,"la2":30.254,"lo1":-89.0895,"lo2":-89.0444,"dy":0.0017,"dx":0.0017,"nx":28,"ny":28,"refTime":"2024-05-27T03:00:00:Z","depth":"2","parameterNumber":3,"parameterNumberName":"V-component_of_CURRENTS"},"data":[0,0,0,0,0,0,0,0,0,0,0,0,0,0,0,0,0,0,0,0,0,0,0,0,0,0,0,0,0,0,0,0,0,0,0,0,0,0,0,0,0,0,0,0,0,0,0,0,0,0,0,0,0,0,0,0,0,0,-0.0139,-0.0139,0,-0.0063,-0.0062,-0.0061,-0.0005,-0.0005,-0.0004,-0.0004,0.0111,0.0114,0.0116,0,0,0,0,0,0,0,0,0,0,0,0,0,-0.0202,-0.0202,-0.014,-0.0139,-0.0138,-0.0063,-0.0062,-0.0061,-0.0005,-0.0005,-0.0004,-0.0004,0.011,0.0113,0.0117,0,0,0,0,0,0,0,0,0,0,0,0,0,-0.0155,-0.0202,-0.014,-0.0102,-0.0098,-0.0064,-0.0062,-0.0061,-0.0005,-0.0005,-0.0004,-0.0004,0.0109,0.0113,0.0117,0.013,0,0,0.0129,0.0131,0,0,0,0,0,0,0,0,-0.0158,-0.0152,-0.0108,-0.0104,-0.01,-0.0044,-0.0042,0.0005,-0.0005,-0.0039,-0.0004,-0.0003,0.0062,0.007,0.0084,0.0135,0.014,0.013,0.0132,0.0134,0.0135,0,0,0,0,0,0,0,-0.0161,-0.0155,-0.0108,-0.0107,-0.0102,-0.0077,-0.007,-0.0033,0.0008,-0.0036,-0.0032,-0.0026,0.0065,0.0079,0.0087,0.0142,0.013,0.0133,0.0136,0.0137,0.0224,0.0224,0,0,0,0,0,0,-0.0175,-0.0159,-0.0111,-0.0106,-0.0129,-0.0076,-0.0068,-0.0062,0.0007,0.0018,-0.0026,-0.0023,0.0072,0.0082,0.0091,0.0114,0.0134,0.0138,0.014,0.0224,0.0224,0.0224,0,0,0,0,0,0,-0.0176,-0.0171,-0.0114,-0.0131,-0.0122,-0.0076,-0.0069,-0.006,-0.0044,0.0014,0.0026,-0.0019,0.0073,0.0085,0.0124,0.0119,0.014,0.0143,0.0224,0.0224,0.0224,0.0158,0,0,0,0,0,0,-0.0179,-0.0172,-0.0175,-0.0132,-0.0122,-0.0101,-0.0069,-0.0059,-0.0041,-0.0037,0.0025,0.0036,0.0075,0.0118,0.0128,0.0125,0.0146,0.0224,0.0224,0.0224,0.0161,0.0156,0.0152,0,0,0,0,0,-0.0181,-0.0192,-0.0176,-0.017,-0.0126,-0.0101,-0.0094,-0.0058,-0.0042,-0.004,0.0005,0.0034,0.0124,0.0121,0.0133,0.0131,0.0224,0.0224,0.0224,0.0163,0.0157,0.0152,0,0,0,0,0,0,-0.0223,-0.0186,-0.0168,-0.0166,-0.0138,-0.0092,-0.009,-0.0064,-0.0027,-0.0022,0.0035,0.0049,0.0078,0.0115,0.011,0.0155,0.0178,0.018,0.0127,0.0122,0.0118,0.0109,0.015,0,0,0,0,0,-0.0234,-0.023,-0.0189,-0.0189,-0.0179,-0.0135,-0.0121,-0.0096,-0.0058,-0.0041,0.0002,0.0048,0.0086,0.0111,0.0147,0.0175,0.0215,0.0181,0.0177,0.0173,0.0175,0.0229,0.023,0.0223,0.0223,0.0223,0,0,-0.025,-0.023,-0.0227,-0.0198,-0.0174,-0.0166,-0.0125,-0.011,-0.0097,-0.0034,-0.0009,0.0031,0.0088,0.0117,0.0134,0.0149,0.0195,0.0173,0.0169,0.0173,0.0229,0.023,0.023,0.0222,0.0222,0.0222,0,0,-0.0287,-0.0264,-0.0275,-0.0257,-0.0227,-0.0194,-0.0193,-0.0149,-0.0124,-0.0094,-0.0048,-0.0008,0.0048,0.0091,0.012,0.0115,0.0164,0.0122,0.0101,0.0153,0.0154,0.0155,0.0199,0.0205,0.0125,0.0125,0.0125,0,-0.0311,-0.0316,-0.0275,-0.0282,-0.0274,-0.0212,-0.0223,-0.0186,-0.0134,-0.011,-0.0095,-0.0005,0.0038,0.0087,0.0084,0.0105,0.014,0.0114,0.0147,0.0149,0.0152,0.0196,0.0204,0.0122,0.0123,0.0123,0.0123,0,-0.0355,-0.0359,-0.0366,-0.035,-0.0334,-0.0334,-0.028,-0.0251,-0.0212,-0.0169,-0.0118,-0.0055,0.0002,0.0018,0.0051,0.009,0.0108,0.0128,0.0157,0.0148,0.0196,0.0205,0.0118,0.0119,0.012,0.012,0,0,-0.0408,-0.0401,-0.0402,-0.041,-0.0373,-0.0363,-0.0334,-0.0288,-0.0256,-0.0204,-0.0167,-0.0102,-0.0059,-0.0024,0.0024,0.0071,0.0114,0.0102,0.0106,0.014,0.0225,0.0271,0.0285,0.0139,0.014,0.0141,0.0247,0,-0.0457,-0.0496,-0.0467,-0.049,-0.0506,-0.0439,-0.041,-0.0355,-0.0294,-0.0239,-0.0162,-0.0112,-0.0076,-0.0048,0.0003,0.0089,0.0136,0.0083,0.0234,0.0238,0.0276,0.0297,0.0264,0.036,0.0256,0.0258,0.0259,0,-0.0508,-0.053,-0.0573,-0.0558,-0.0554,-0.055,-0.0487,-0.0451,-0.0348,-0.0298,-0.0229,-0.0161,-0.0083,-0.0055,0.0088,0.0052,0.0129,0.0194,0.02,0.0275,0.0301,0.0355,0.038,0.0274,0.0273,0.0272,0.0271,0,-0.0578,-0.0595,-0.0634,-0.0636,-0.0608,-0.0602,-0.0571,-0.048,-0.0438,-0.0338,-0.0295,-0.0189,-0.0126,-0.0023,0.0115,0.0102,0.0274,0.0278,0.0393,0.0396,0.0416,0.042,0.0376,0.0376,0.0376,0.0375,0.0375,0,-0.0645,-0.0671,-0.0674,-0.0701,-0.072,-0.0672,-0.066,-0.0594,-0.0505,-0.0445,-0.0339,-0.0255,-0.0113,0.0008,0.0113,0.0289,0.0279,0.0399,0.0434,0.0392,0.0392,0.0356,0.0352,0.0379,0.0378,0.0378,0.0377,0,-0.0712,-0.0716,-0.0758,-0.0758,-0.0761,-0.0772,-0.0735,-0.0728,-0.0609,-0.0528,-0.0498,-0.0304,-0.0125,0.0016,0.0209,0.0302,0.045,0.0512,0.045,0.0477,0.0533,0.0525,0.0649,0.0652,0.0654,0.0656,0.0658,0,-0.075,-0.0783,-0.0816,-0.0856,-0.0866,-0.0879,-0.09,-0.0803,-0.0781,-0.0536,-0.0511,-0.0294,-0.0112,0.0182,0.0365,0.0559,0.0534,0.0631,0.0608,0.0544,0.0565,0.0553,0.0542,0.0602,0.0603,0.0604,0.0605,0,-0.0817,-0.0824,-0.0855,-0.0962,-0.1013,-0.1048,-0.1054,-0.1027,-0.0874,-0.0724,-0.046,-0.0269,0.0044,0.0294,0.0516,0.0613,0.0594,0.0657,0.0622,0.0539,0.0509,0.0526,0.0515,0.0612,0.0611,0.0611,0.061,0.061,-0.0851,-0.0884,-0.0954,-0.1052,-0.1134,-0.1202,-0.1176,-0.111,-0.0979,-0.0663,-0.048,-0.0149,0.0074,0.0424,0.0596,0.0726,0.0724,0.0731,0.0725,0.0718,0.0694,0.067,0.0799,0.0799,0.08,0.08,0.08,0,-0.0891,-0.0949,-0.1054,-0.1159,-0.1291,-0.1298,-0.1273,-0.1174,-0.0957,-0.0628,-0.0309,-0.0065,0.0207,0.0415,0.0661,0.0815,0.0771,0.0803,0.0717,0.071,0.0703,0.0674,0.0776,0.0777,0.0777,0.0778,0,0,-0.0912,-0.0991,-0.1057,-0.1281,-0.1373,-0.1409,-0.1359,-0.1142,-0.0884,-0.0485,-0.0216,0.004,0.0263,0.0406,0.0586,0.0718,0.0681,0.0711,0.0717,0.0593,0.0585,0.0647,0.0594,0,0,0,0,0]}],[{"header":{"parameterUnit":"m.s-1","parameterCategory":2,"la1":30.2991,"la2":30.254,"lo1":-89.0895,"lo2":-89.0444,"dy":0.0017,"dx":0.0017,"nx":28,"ny":28,"refTime":"2024-05-27T03:00:00:Z","depth":"4","parameterNumber":2,"parameterNumberName":"U-component_of_CURRENTS"},"data":[0,0,0,0,0,0,0,0,0,0,0,0,0,0,0,0,0,0,0,0,0,0,0,0,0,0,0,0,0,0,0,0,0,0,0,0,0,0,0,0,0,0,0,0,0,0,0,0,0,0,0,0,0,0,0,0,0,0,-0.156,-0.1561,0,-0.1636,-0.1637,-0.1637,-0.1677,-0.1677,-0.1677,-0.1677,-0.1742,-0.1744,-0.1745,0,0,0,0,0,0,0,0,0,0,0,0,0,-0.143,-0.1432,-0.156,-0.1561,-0.1563,-0.1636,-0.1637,-0.1638,-0.1677,-0.1677,-0.1677,-0.1677,-0.1742,-0.1744,-0.1746,0,0,0,0,0,0,0,0,0,0,0,0,0,-0.1493,-0.1433,-0.156,-0.1592,-0.1596,-0.1636,-0.1637,-0.1638,-0.1676,-0.1677,-0.1677,-0.1677,-0.1741,-0.1744,-0.1746,-0.1753,0,0,-0.1753,-0.1754,0,0,0,0,0,0,0,0,-0.1489,-0.1497,-0.1586,-0.159,-0.1595,-0.1649,-0.1615,-0.1677,-0.1676,-0.1644,-0.1677,-0.1678,-0.1711,-0.1716,-0.1727,-0.1756,-0.1759,-0.1753,-0.1754,-0.1755,-0.1756,0,0,0,0,0,0,0,-0.1485,-0.1494,-0.1588,-0.1588,-0.1593,-0.1597,-0.1606,-0.1627,-0.1673,-0.1647,-0.165,-0.1662,-0.1713,-0.1724,-0.1729,-0.176,-0.1753,-0.1755,-0.1756,-0.1757,-0.1879,-0.1881,0,0,0,0,0,0,-0.1481,-0.149,-0.1586,-0.1591,-0.1544,-0.1599,-0.1609,-0.1629,-0.1673,-0.1681,-0.1661,-0.1663,-0.172,-0.1726,-0.1731,-0.1809,-0.1755,-0.1757,-0.1759,-0.1877,-0.1879,-0.1881,0,0,0,0,0,0,-0.1478,-0.1489,-0.1583,-0.1543,-0.1556,-0.1601,-0.1624,-0.1631,-0.1671,-0.1685,-0.1692,-0.1697,-0.1721,-0.1728,-0.178,-0.1809,-0.1758,-0.1761,-0.1875,-0.1878,-0.188,-0.1923,0,0,0,0,0,0,-0.1474,-0.1487,-0.1513,-0.1543,-0.1558,-0.1627,-0.1624,-0.1632,-0.1677,-0.1681,-0.1717,-0.1722,-0.1722,-0.1777,-0.1782,-0.1812,-0.1762,-0.1872,-0.1876,-0.1879,-0.1919,-0.1927,-0.1933,0,0,0,0,0,-0.1469,-0.1498,-0.1514,-0.1526,-0.1588,-0.1628,-0.1637,-0.1667,-0.1679,-0.1703,-0.1732,-0.1723,-0.1802,-0.178,-0.1786,-0.1817,-0.1871,-0.1875,-0.1879,-0.1916,-0.1925,-0.1933,0,0,0,0,0,0,-0.1453,-0.1506,-0.1523,-0.1568,-0.1606,-0.1636,-0.1665,-0.1685,-0.1727,-0.1738,-0.1747,-0.1754,-0.1809,-0.1813,-0.1788,-0.1864,-0.1835,-0.1841,-0.1861,-0.187,-0.1877,-0.1865,-0.1764,0,0,0,0,0,-0.1462,-0.1502,-0.1544,-0.1583,-0.1604,-0.164,-0.1666,-0.1689,-0.1724,-0.1744,-0.177,-0.1799,-0.1827,-0.1849,-0.1872,-0.1916,-0.1892,-0.1941,-0.1948,-0.1954,-0.1951,-0.1943,-0.1948,-0.1895,-0.1895,-0.1895,0,0,-0.1467,-0.1501,-0.1525,-0.1583,-0.1614,-0.1656,-0.1657,-0.1706,-0.1746,-0.1743,-0.1811,-0.1827,-0.1845,-0.1893,-0.1918,-0.1903,-0.1958,-0.196,-0.1964,-0.1957,-0.1948,-0.1953,-0.1957,-0.1898,-0.1897,-0.1897,0,0,-0.1487,-0.1528,-0.1566,-0.1603,-0.166,-0.1684,-0.1706,-0.1756,-0.1786,-0.1847,-0.1853,-0.1887,-0.1942,-0.1951,-0.1963,-0.2026,-0.1994,-0.2044,-0.2072,-0.2065,-0.2068,-0.2071,-0.2042,-0.2042,-0.2048,-0.2048,-0.2048,0,-0.149,-0.1548,-0.1583,-0.1627,-0.1663,-0.1702,-0.1747,-0.1783,-0.1846,-0.1867,-0.1878,-0.1946,-0.1964,-0.2003,-0.2029,-0.2039,-0.2024,-0.2034,-0.2071,-0.2073,-0.2075,-0.2045,-0.2045,-0.2051,-0.2051,-0.205,-0.205,0,-0.1534,-0.159,-0.1615,-0.1687,-0.1727,-0.1775,-0.1824,-0.187,-0.1909,-0.1936,-0.1992,-0.2014,-0.2047,-0.2066,-0.207,-0.2102,-0.2082,-0.2077,-0.2041,-0.2083,-0.2049,-0.2047,-0.2055,-0.2054,-0.2053,-0.2052,0,0,-0.1508,-0.1625,-0.1636,-0.1678,-0.1765,-0.1795,-0.1866,-0.1925,-0.1959,-0.2016,-0.2049,-0.2105,-0.2107,-0.212,-0.2127,-0.2129,-0.2134,-0.2118,-0.2116,-0.2074,-0.2105,-0.1965,-0.1949,-0.2137,-0.2137,-0.2137,-0.2073,0,-0.1533,-0.1623,-0.1679,-0.1762,-0.1806,-0.1865,-0.1921,-0.1977,-0.202,-0.2061,-0.2082,-0.2121,-0.2131,-0.2147,-0.2153,-0.2142,-0.2133,-0.2151,-0.2084,-0.2081,-0.194,-0.1944,-0.2138,-0.2071,-0.2071,-0.2071,-0.207,0,-0.1549,-0.1609,-0.17,-0.1795,-0.1819,-0.1875,-0.1952,-0.2008,-0.2066,-0.2097,-0.2132,-0.2146,-0.2171,-0.2166,-0.2158,-0.2171,-0.2144,-0.2125,-0.2122,-0.1972,-0.1938,-0.2025,-0.2067,-0.2067,-0.2067,-0.2068,-0.2068,0,-0.1496,-0.1616,-0.1689,-0.1726,-0.1841,-0.1886,-0.1944,-0.2015,-0.2052,-0.2115,-0.2136,-0.2166,-0.2176,-0.2164,-0.2135,-0.2154,-0.2094,-0.2111,-0.1952,-0.1941,-0.2068,-0.2066,-0.2085,-0.2086,-0.2086,-0.2086,-0.2086,0,-0.1484,-0.1541,-0.1674,-0.171,-0.1774,-0.1865,-0.1926,-0.1984,-0.2055,-0.208,-0.2147,-0.215,-0.2178,-0.2149,-0.2126,-0.2015,-0.2085,-0.1941,-0.1911,-0.2088,-0.2089,-0.2066,-0.2064,-0.2083,-0.2084,-0.2084,-0.2085,0,-0.1411,-0.1512,-0.1586,-0.1714,-0.1753,-0.1793,-0.1904,-0.1932,-0.2027,-0.2058,-0.2078,-0.2132,-0.209,-0.2076,-0.2034,-0.1978,-0.1904,-0.1844,-0.201,-0.1994,-0.1761,-0.1763,-0.1669,-0.1663,-0.1658,-0.1654,-0.1651,0,-0.1377,-0.1419,-0.1556,-0.1586,-0.1648,-0.1727,-0.1768,-0.1892,-0.1921,-0.2025,-0.2016,-0.2017,-0.2026,-0.1842,-0.186,-0.1767,-0.1751,-0.1712,-0.1761,-0.1736,-0.1717,-0.1727,-0.1735,-0.1644,-0.1642,-0.1641,-0.164,0,-0.1297,-0.1366,-0.1428,-0.1479,-0.1537,-0.1585,-0.1662,-0.1669,-0.1798,-0.1918,-0.1892,-0.1858,-0.1792,-0.1738,-0.1655,-0.1608,-0.1744,-0.1663,-0.1673,-0.1719,-0.1704,-0.1693,-0.1707,-0.1624,-0.1626,-0.1627,-0.1628,0,-0.1219,-0.1245,-0.1322,-0.1352,-0.1408,-0.14,-0.1468,-0.1506,-0.1557,-0.1707,-0.1691,-0.1705,-0.177,-0.1652,-0.1589,-0.1509,-0.1503,-0.1482,-0.1503,-0.1521,-0.15,-0.1461,-0.1263,0,0,0,0,0,-0.1123,-0.1157,-0.1179,-0.1199,-0.1236,-0.126,-0.137,-0.1447,-0.1594,-0.1533,-0.1612,-0.1552,-0.1476,-0.1489,-0.1367,-0.1492,-0.1483,-0.1347,-0.1465,-0.1533,-0.1552,-0.154,0,0,0,0,0,0,-0.1045,-0.1118,-0.1138,-0.1048,-0.102,-0.1041,-0.11,-0.1205,-0.1193,-0.1357,-0.131,-0.1457,-0.138,-0.1491,-0.1327,-0.1328,-0.1373,-0.1382,-0.1378,-0.1522,-0.1539,-0.1554,-0.1549,0,0,0,0,0]},{"header":{"parameterUnit":"m.s-1","parameterCategory":2,"la1":30.2991,"la2":30.254,"lo1":-89.0895,"lo2":-89.0444,"dy":0.0017,"dx":0.0017,"nx":28,"ny":28,"refTime":"2024-05-27T03:00:00:Z","depth":"4","parameterNumber":3,"parameterNumberName":"V-component_of_CURRENTS"},"data":[0,0,0,0,0,0,0,0,0,0,0,0,0,0,0,0,0,0,0,0,0,0,0,0,0,0,0,0,0,0,0,0,0,0,0,0,0,0,0,0,0,0,0,0,0,0,0,0,0,0,0,0,0,0,0,0,0,0,-0.013,-0.0129,0,-0.0075,-0.0074,-0.0073,-0.0035,-0.0035,-0.0035,-0.0035,0.0061,0.0063,0.0066,0,0,0,0,0,0,0,0,0,0,0,0,0,-0.0176,-0.0176,-0.013,-0.0129,-0.0129,-0.0075,-0.0074,-0.0073,-0.0035,-0.0035,-0.0035,-0.0035,0.006,0.0063,0.0066,0,0,0,0,0,0,0,0,0,0,0,0,0,-0.0141,-0.0176,-0.013,-0.0104,-0.0101,-0.0075,-0.0074,-0.0073,-0.0035,-0.0035,-0.0035,-0.0034,0.0059,0.0063,0.0066,0.0083,0,0,0.0077,0.0079,0,0,0,0,0,0,0,0,-0.0143,-0.0139,-0.0109,-0.0106,-0.0103,-0.0062,-0.0055,-0.0019,-0.0035,-0.0059,-0.0035,-0.0034,0.0023,0.0029,0.004,0.0087,0.0091,0.0078,0.008,0.0081,0.0082,0,0,0,0,0,0,0,-0.0146,-0.0142,-0.0107,-0.0108,-0.0104,-0.0086,-0.0081,-0.0048,-0.0019,-0.0057,-0.0055,-0.005,0.0025,0.0036,0.0043,0.0093,0.0077,0.0081,0.0083,0.0084,0.017,0.017,0,0,0,0,0,0,-0.0156,-0.0144,-0.0109,-0.0105,-0.0124,-0.0086,-0.008,-0.0075,-0.002,-0.0012,-0.005,-0.0049,0.003,0.0038,0.0046,0.0075,0.0081,0.0085,0.0087,0.017,0.017,0.017,0,0,0,0,0,0,-0.0158,-0.0154,-0.0111,-0.0124,-0.0118,-0.0086,-0.008,-0.0074,-0.0062,-0.0016,-0.0007,-0.0045,0.0031,0.0041,0.0076,0.0078,0.0086,0.0089,0.017,0.017,0.017,0.0128,0,0,0,0,0,0,-0.0159,-0.0155,-0.0157,-0.0125,-0.0117,-0.01,-0.008,-0.0073,-0.006,-0.0057,-0.0008,0.0001,0.0032,0.007,0.008,0.0084,0.0092,0.0169,0.017,0.017,0.0129,0.0127,0.0125,0,0,0,0,0,-0.0161,-0.0166,-0.0157,-0.0153,-0.0121,-0.01,-0.0094,-0.007,-0.006,-0.0058,-0.0022,-0.0,0.0079,0.0073,0.0084,0.0089,0.0169,0.017,0.017,0.0131,0.0128,0.0125,0,0,0,0,0,0,-0.0188,-0.0162,-0.0152,-0.0149,-0.0128,-0.0094,-0.0092,-0.0074,-0.0044,-0.0041,0.0003,0.0015,0.0043,0.0073,0.0066,0.0115,0.0127,0.0129,0.0093,0.0091,0.0089,0.0084,0.0095,0,0,0,0,0,-0.0196,-0.0193,-0.0164,-0.0163,-0.0155,-0.0125,-0.0114,-0.0097,-0.0066,-0.0054,-0.0019,0.0019,0.0053,0.0076,0.0106,0.0137,0.0169,0.0147,0.0145,0.0143,0.0146,0.0197,0.02,0.0171,0.0171,0.0171,0,0,-0.0207,-0.0192,-0.0191,-0.0169,-0.0152,-0.0144,-0.0117,-0.0105,-0.0093,-0.0047,-0.0023,0.0008,0.0057,0.0087,0.0103,0.0114,0.0165,0.0143,0.0141,0.0145,0.0198,0.0201,0.0203,0.0171,0.0171,0.0171,0,0,-0.0229,-0.0215,-0.0221,-0.0208,-0.0186,-0.0163,-0.0161,-0.0129,-0.0109,-0.0082,-0.0047,-0.0011,0.0036,0.0077,0.0103,0.0109,0.0145,0.0113,0.0108,0.0157,0.016,0.0163,0.0195,0.0201,0.012,0.012,0.012,0,-0.0245,-0.0246,-0.022,-0.0222,-0.0215,-0.0174,-0.0178,-0.0149,-0.0108,-0.0086,-0.0081,-0.0001,0.0035,0.0089,0.0087,0.0105,0.0131,0.0112,0.0154,0.0157,0.0161,0.0194,0.0201,0.0118,0.0118,0.0118,0.0119,0,-0.0271,-0.0272,-0.0276,-0.0262,-0.0249,-0.0246,-0.0206,-0.0182,-0.0154,-0.0121,-0.0072,-0.0022,0.0031,0.0044,0.0068,0.0114,0.0121,0.0137,0.0158,0.0162,0.0196,0.0204,0.0115,0.0116,0.0116,0.0117,0,0,-0.0303,-0.0296,-0.0298,-0.0298,-0.0272,-0.0261,-0.0235,-0.0193,-0.0159,-0.0123,-0.0082,-0.0028,0.0003,0.0035,0.0073,0.0116,0.0158,0.0133,0.0136,0.016,0.0254,0.0237,0.0244,0.0179,0.018,0.0182,0.0263,0,-0.0332,-0.0354,-0.0333,-0.034,-0.0347,-0.0299,-0.0269,-0.0223,-0.0175,-0.0123,-0.0063,-0.0015,0.0001,0.0029,0.0072,0.0137,0.018,0.0133,0.0252,0.0256,0.0237,0.0254,0.0186,0.027,0.0272,0.0273,0.0274,0,-0.0364,-0.0373,-0.0399,-0.0373,-0.0367,-0.0362,-0.0302,-0.0267,-0.018,-0.0137,-0.0079,-0.0028,0.0039,0.005,0.0161,0.0129,0.0186,0.0234,0.0239,0.0245,0.0254,0.0271,0.029,0.0289,0.0287,0.0286,0.0285,0,-0.0409,-0.0411,-0.0434,-0.0433,-0.04,-0.0392,-0.0362,-0.0283,-0.0242,-0.015,-0.011,-0.0023,0.0026,0.0104,0.0192,0.0182,0.0312,0.0317,0.0358,0.0357,0.0366,0.0362,0.0403,0.0403,0.0402,0.0402,0.0402,0,-0.0446,-0.0461,-0.0462,-0.0478,-0.048,-0.0438,-0.0413,-0.0354,-0.0274,-0.0235,-0.0129,-0.0074,0.0042,0.0128,0.02,0.0299,0.0323,0.0361,0.0382,0.0344,0.0337,0.0371,0.0366,0.0405,0.0404,0.0404,0.0403,0,-0.049,-0.0494,-0.0519,-0.0511,-0.0511,-0.0513,-0.0469,-0.0439,-0.0346,-0.0294,-0.0268,-0.0109,0.0009,0.0123,0.0265,0.031,0.0408,0.0441,0.0385,0.0401,0.0416,0.0408,0.0493,0.0493,0.0494,0.0494,0.0494,0,-0.0512,-0.0536,-0.0563,-0.0585,-0.0591,-0.0589,-0.0583,-0.0497,-0.047,-0.0322,-0.0305,-0.0151,-0.0055,0.0137,0.0266,0.0414,0.0432,0.0477,0.0451,0.0416,0.0428,0.042,0.0412,0.0494,0.0494,0.0494,0.0494,0,-0.0549,-0.0568,-0.0589,-0.0647,-0.0669,-0.0676,-0.0669,-0.0653,-0.0551,-0.0471,-0.0337,-0.0194,-0.0045,0.0121,0.0248,0.0352,0.0442,0.0479,0.0479,0.0455,0.0418,0.0428,0.042,0.0495,0.0495,0.0495,0.0495,0,-0.0566,-0.06,-0.0644,-0.0683,-0.0721,-0.0751,-0.0739,-0.0697,-0.0641,-0.0489,-0.045,-0.0242,-0.0112,0.0092,0.0204,0.031,0.0332,0.0344,0.0352,0.0353,0.0286,0.0218,0.0256,0,0,0,0,0,-0.0571,-0.0621,-0.0674,-0.0716,-0.0759,-0.0778,-0.0782,-0.0757,-0.068,-0.0611,-0.0526,-0.0385,-0.0146,-0.0003,0.0094,0.0191,0.0335,0.0308,0.0347,0.0498,0.0497,0.0441,0,0,0,0,0,0,-0.0567,-0.0641,-0.0677,-0.0736,-0.0769,-0.0806,-0.0815,-0.0772,-0.0719,-0.0624,-0.0493,-0.0376,-0.0143,-0.0211,0.0095,0.0139,0.0171,0.0442,0.0443,0.0498,0.0497,0.0497,0.0439,0,0,0,0,0]}]]